Time,TemperatureF,DewpointF,PressureIn,WindDirection,WindDirectionDegrees,WindSpeedMPH,WindSpeedGustMPH,Humidity,HourlyPrecipIn,Conditions,Clouds,dailyrainin,SoftwareType,DateUTC
2013-02-04 00:03:00,55.0,54.0,30.09,WNW,292,2.0,3.0,95,-99.99,,,-99.99,,2013-02-04 05:03:00,
2013-02-04 00:12:00,55.0,54.0,30.09,West,259,2.0,6.0,96,-99.99,,,-99.99,,2013-02-04 05:12:00,
2013-02-04 00:22:00,55.0,54.0,30.09,West,259,2.0,6.0,96,-99.99,,,-99.99,,2013-02-04 05:22:00,
2013-02-04 00:33:00,55.0,54.0,30.09,WSW,252,3.0,4.0,96,-99.99,,,-99.99,,2013-02-04 05:33:00,
2013-02-04 00:42:00,55.0,54.0,30.08,WSW,244,3.0,8.0,96,-99.99,,,-99.99,,2013-02-04 05:42:00,
2013-02-04 00:52:00,55.0,53.0,30.08,NW,315,9.0,13.0,94,-99.99,,,-99.99,,2013-02-04 05:52:00,
2013-02-04 01:02:00,55.0,-99.9,30.08,NW,315,9.0,13.0,94,-99.99,,,-99.99,,2013-02-04 06:02:00,
2013-02-04 01:11:00,55.0,51.0,30.08,NW,310,6.0,12.0,86,-99.99,,,-99.99,,2013-02-04 06:11:00,
2013-02-04 01:21:00,55.0,51.0,30.08,NW,310,6.0,12.0,86,-99.99,,,-99.99,,2013-02-04 06:21:00,
2013-02-04 01:32:00,55.0,51.0,30.07,NW,321,4.0,8.0,86,-99.99,,,-99.99,,2013-02-04 06:32:00,
2013-02-04 01:42:00,55.0,51.0,30.08,NW,325,4.0,7.0,87,-99.99,,,-99.99,,2013-02-04 06:42:00,
2013-02-04 01:52:00,54.0,51.0,30.07,NW,322,5.0,6.0,90,-99.99,,,-99.99,,2013-02-04 06:52:00,
2013-02-04 02:02:00,54.0,51.0,30.07,NW,322,5.0,6.0,90,-99.99,,,-99.99,,2013-02-04 07:02:00,
2013-02-04 02:11:00,54.0,51.0,30.07,NNW,330,5.0,6.0,90,-99.99,,,-99.99,,2013-02-04 07:11:00,
2013-02-04 02:21:00,54.0,51.0,30.07,NNW,330,5.0,6.0,90,-99.99,,,-99.99,,2013-02-04 07:21:00,
2013-02-04 02:32:00,54.0,51.0,30.07,NNW,328,5.0,7.0,91,-99.99,,,-99.99,,2013-02-04 07:32:00,
2013-02-04 02:42:00,53.0,51.0,30.07,NNW,333,4.0,7.0,92,-99.99,,,-99.99,,2013-02-04 07:42:00,
2013-02-04 02:52:00,53.0,51.0,30.07,NNW,333,4.0,7.0,92,-99.99,,,-99.99,,2013-02-04 07:52:00,
2013-02-04 03:01:00,53.0,51.0,30.07,NNW,333,4.0,7.0,92,-99.99,,,-99.99,,2013-02-04 08:01:00,
2013-02-04 03:11:00,53.0,51.0,30.07,SSW,210,4.0,7.0,94,-99.99,,,-99.99,,2013-02-04 08:11:00,
2013-02-04 03:21:00,53.0,51.0,30.07,SSW,210,4.0,7.0,94,-99.99,,,-99.99,,2013-02-04 08:21:00,
2013-02-04 03:32:00,53.0,51.0,30.07,SSW,210,4.0,7.0,94,-99.99,,,-99.99,,2013-02-04 08:32:00,
2013-02-04 03:42:00,52.0,51.0,30.07,West,269,4.0,6.0,94,-99.99,,,-99.99,,2013-02-04 08:42:00,
2013-02-04 03:52:00,52.0,50.0,30.07,SSW,202,4.0,6.0,94,-99.99,,,-99.99,,2013-02-04 08:52:00,
2013-02-04 04:02:00,52.0,50.0,30.07,SSW,202,4.0,6.0,94,-99.99,,,-99.99,,2013-02-04 09:02:00,
2013-02-04 04:11:00,51.0,50.0,30.07,West,268,6.0,8.0,94,-99.99,,,-99.99,,2013-02-04 09:11:00,
2013-02-04 04:21:00,51.0,50.0,30.07,West,268,6.0,8.0,94,-99.99,,,-99.99,,2013-02-04 09:21:00,
2013-02-04 04:32:00,51.0,49.0,30.07,WSW,244,6.0,8.0,93,-99.99,,,-99.99,,2013-02-04 09:32:00,
2013-02-04 04:42:00,51.0,48.0,30.07,SW,229,5.0,8.0,91,-99.99,,,-99.99,,2013-02-04 09:42:00,
2013-02-04 04:52:00,50.0,47.0,30.08,WSW,241,6.0,8.0,86,-99.99,,,-99.99,,2013-02-04 09:52:00,
2013-02-04 05:02:00,50.0,47.0,30.08,WSW,241,6.0,8.0,86,-99.99,,,-99.99,,2013-02-04 10:02:00,
2013-02-04 05:12:00,50.0,46.0,30.07,WSW,254,5.0,8.0,86,-99.99,,,-99.99,,2013-02-04 10:12:00,
2013-02-04 05:21:00,50.0,46.0,30.07,WSW,254,5.0,8.0,86,-99.99,,,-99.99,,2013-02-04 10:21:00,
2013-02-04 05:32:00,50.0,46.0,30.07,WSW,253,5.0,7.0,86,-99.99,,,-99.99,,2013-02-04 10:32:00,
2013-02-04 05:42:00,49.0,45.0,30.08,West,261,4.0,6.0,85,-99.99,,,-99.99,,2013-02-04 10:42:00,
2013-02-04 05:52:00,49.0,46.0,30.08,NNW,334,3.0,4.0,88,-99.99,,,-99.99,,2013-02-04 10:52:00,
2013-02-04 06:02:00,49.0,46.0,30.08,NNW,334,3.0,4.0,88,-99.99,,,-99.99,,2013-02-04 11:02:00,
2013-02-04 06:11:00,49.0,46.0,30.09,NNW,339,5.0,6.0,90,-99.99,,,-99.99,,2013-02-04 11:11:00,
2013-02-04 06:22:00,49.0,46.0,30.09,NNW,339,5.0,6.0,90,-99.99,,,-99.99,,2013-02-04 11:22:00,
2013-02-04 06:32:00,49.0,46.0,30.09,NNW,339,5.0,6.0,90,-99.99,,,-99.99,,2013-02-04 11:32:00,
2013-02-04 06:42:00,49.0,45.0,30.09,NNW,335,6.0,7.0,85,-99.99,,,-99.99,,2013-02-04 11:42:00,
2013-02-04 06:52:00,49.0,45.0,30.09,West,279,4.0,6.0,86,-99.99,,,-99.99,,2013-02-04 11:52:00,
2013-02-04 07:03:00,49.0,45.0,30.09,West,279,4.0,6.0,86,-99.99,,,-99.99,,2013-02-04 12:03:00,
2013-02-04 07:12:00,48.0,45.0,30.09,NNW,334,3.0,4.0,89,-99.99,,,-99.99,,2013-02-04 12:12:00,
2013-02-04 07:22:00,48.0,45.0,30.09,NNW,334,3.0,4.0,89,-99.99,,,-99.99,,2013-02-04 12:22:00,
2013-02-04 07:32:00,48.0,46.0,30.10,NNW,339,4.0,6.0,91,-99.99,,,-99.99,,2013-02-04 12:32:00,
2013-02-04 07:42:00,48.0,46.0,30.10,NNW,342,5.0,6.0,91,-99.99,,,-99.99,,2013-02-04 12:42:00,
2013-02-04 07:53:00,49.0,46.0,30.11,NNW,334,3.0,5.0,91,-99.99,,,-99.99,,2013-02-04 12:53:00,
2013-02-04 08:03:00,49.0,46.0,30.11,NNW,334,3.0,5.0,91,-99.99,,,-99.99,,2013-02-04 13:03:00,
2013-02-04 08:12:00,50.0,47.0,30.11,NNW,330,4.0,5.0,89,-99.99,,,-99.99,,2013-02-04 13:12:00,
2013-02-04 08:22:00,50.0,47.0,30.11,NNW,330,4.0,5.0,89,-99.99,,,-99.99,,2013-02-04 13:22:00,
2013-02-04 08:33:00,51.0,47.0,30.11,NNW,330,4.0,6.0,85,-99.99,,,-99.99,,2013-02-04 13:33:00,
2013-02-04 08:42:00,52.0,46.0,30.12,WNW,282,6.0,9.0,79,-99.99,,,-99.99,,2013-02-04 13:42:00,
2013-02-04 08:52:00,53.0,46.0,30.12,West,271,7.0,10.0,76,-99.99,,,-99.99,,2013-02-04 13:52:00,
2013-02-04 09:03:00,53.0,46.0,30.12,West,271,7.0,10.0,76,-99.99,,,-99.99,,2013-02-04 14:03:00,
2013-02-04 09:12:00,54.0,46.0,30.12,West,279,6.0,8.0,76,-99.99,,,-99.99,,2013-02-04 14:12:00,
2013-02-04 09:23:00,54.0,46.0,30.12,West,279,6.0,8.0,76,-99.99,,,-99.99,,2013-02-04 14:23:00,
2013-02-04 09:33:00,54.0,46.0,30.12,West,279,6.0,8.0,76,-99.99,,,-99.99,,2013-02-04 14:33:00,
2013-02-04 09:42:00,56.0,47.0,30.13,South,188,5.0,8.0,71,-99.99,,,-99.99,,2013-02-04 14:42:00,
2013-02-04 09:53:00,57.0,47.0,30.13,West,281,4.0,7.0,68,-99.99,,,-99.99,,2013-02-04 14:53:00,
2013-02-04 10:03:00,57.0,47.0,30.13,West,281,4.0,7.0,68,-99.99,,,-99.99,,2013-02-04 15:03:00,
2013-02-04 10:13:00,58.0,47.0,30.13,WNW,293,3.0,5.0,64,-99.99,,,-99.99,,2013-02-04 15:13:00,
2013-02-04 10:24:00,58.0,47.0,30.13,WNW,293,3.0,5.0,64,-99.99,,,-99.99,,2013-02-04 15:24:00,
2013-02-04 10:33:00,60.0,47.0,30.13,NW,313,3.0,6.0,62,-99.99,,,-99.99,,2013-02-04 15:33:00,
2013-02-04 10:43:00,61.0,45.0,30.13,SW,228,2.0,4.0,55,-99.99,,,-99.99,,2013-02-04 15:43:00,
2013-02-04 10:53:00,63.0,45.0,30.13,SW,216,2.0,5.0,52,-99.99,,,-99.99,,2013-02-04 15:53:00,
2013-02-04 11:03:00,63.0,45.0,30.13,SW,216,2.0,5.0,52,-99.99,,,-99.99,,2013-02-04 16:03:00,
2013-02-04 11:11:00,64.0,45.0,30.13,WNW,286,3.0,6.0,49,-99.99,,,-99.99,,2013-02-04 16:11:00,
2013-02-04 11:23:00,64.0,45.0,30.13,WNW,286,3.0,6.0,49,-99.99,,,-99.99,,2013-02-04 16:23:00,
2013-02-04 11:33:00,64.0,45.0,30.13,WNW,286,3.0,6.0,49,-99.99,,,-99.99,,2013-02-04 16:33:00,
2013-02-04 11:43:00,64.0,45.0,30.13,WNW,286,3.0,6.0,49,-99.99,,,-99.99,,2013-02-04 16:43:00,
2013-02-04 11:52:00,67.0,45.0,30.11,South,173,2.0,4.0,44,-99.99,,,-99.99,,2013-02-04 16:52:00,
2013-02-04 12:03:00,68.0,46.0,30.11,SSW,207,2.0,5.0,44,-99.99,,,-99.99,,2013-02-04 17:03:00,
2013-02-04 12:12:00,68.0,44.0,30.11,SW,223,4.0,9.0,42,-99.99,,,-99.99,,2013-02-04 17:12:00,
2013-02-04 12:21:00,68.0,44.0,30.11,SW,223,4.0,9.0,42,-99.99,,,-99.99,,2013-02-04 17:21:00,
2013-02-04 12:32:00,68.0,44.0,30.11,SW,223,4.0,9.0,42,-99.99,,,-99.99,,2013-02-04 17:32:00,
2013-02-04 12:42:00,69.0,45.0,30.09,SW,227,6.0,13.0,42,-99.99,,,-99.99,,2013-02-04 17:42:00,
2013-02-04 12:52:00,69.0,44.0,30.08,WSW,237,6.0,10.0,40,-99.99,,,-99.99,,2013-02-04 17:52:00,
2013-02-04 13:03:00,69.0,44.0,30.08,WSW,237,6.0,10.0,40,-99.99,,,-99.99,,2013-02-04 18:03:00,
2013-02-04 13:11:00,69.0,44.0,30.08,WSW,254,7.0,11.0,40,-99.99,,,-99.99,,2013-02-04 18:11:00,
2013-02-04 13:22:00,69.0,44.0,30.08,WSW,254,7.0,11.0,40,-99.99,,,-99.99,,2013-02-04 18:22:00,
2013-02-04 13:32:00,69.0,44.0,30.08,WSW,254,7.0,11.0,40,-99.99,,,-99.99,,2013-02-04 18:32:00,
2013-02-04 13:42:00,70.0,46.0,30.06,WSW,245,6.0,11.0,42,-99.99,,,-99.99,,2013-02-04 18:42:00,
2013-02-04 13:52:00,70.0,46.0,30.06,WSW,245,6.0,11.0,42,-99.99,,,-99.99,,2013-02-04 18:52:00,
2013-02-04 14:02:00,70.0,46.0,30.04,WSW,239,5.0,9.0,41,-99.99,,,-99.99,,2013-02-04 19:02:00,
2013-02-04 14:11:00,72.0,47.0,30.04,SW,231,5.0,14.0,41,-99.99,,,-99.99,,2013-02-04 19:11:00,
2013-02-04 14:22:00,72.0,47.0,30.04,SW,231,5.0,14.0,41,-99.99,,,-99.99,,2013-02-04 19:22:00,
2013-02-04 14:32:00,72.0,47.0,30.04,SW,231,5.0,14.0,41,-99.99,,,-99.99,,2013-02-04 19:32:00,
2013-02-04 14:42:00,72.0,46.0,30.03,SW,215,8.0,13.0,39,-99.99,,,-99.99,,2013-02-04 19:42:00,
2013-02-04 14:52:00,72.0,46.0,30.03,SW,215,8.0,13.0,39,-99.99,,,-99.99,,2013-02-04 19:52:00,
2013-02-04 15:02:00,72.0,47.0,30.02,WSW,241,7.0,14.0,41,-99.99,,,-99.99,,2013-02-04 20:02:00,
2013-02-04 15:12:00,72.0,46.0,30.02,SW,224,8.0,16.0,38,-99.99,,,-99.99,,2013-02-04 20:12:00,
2013-02-04 15:22:00,72.0,46.0,30.02,SW,224,8.0,16.0,38,-99.99,,,-99.99,,2013-02-04 20:22:00,
2013-02-04 15:32:00,72.0,46.0,30.02,SW,224,8.0,16.0,38,-99.99,,,-99.99,,2013-02-04 20:32:00,
2013-02-04 15:42:00,73.0,46.0,30.02,SW,232,7.0,12.0,38,-99.99,,,-99.99,,2013-02-04 20:42:00,
2013-02-04 15:52:00,73.0,46.0,30.02,SW,232,7.0,12.0,38,-99.99,,,-99.99,,2013-02-04 20:52:00,
2013-02-04 16:00:00,73.0,51.0,30.01,SSE,157,7.0,12.0,45,-99.99,,,-99.99,,2013-02-04 21:00:00,
2013-02-04 16:03:00,73.0,47.0,30.02,WSW,252,6.0,11.0,39,-99.99,,,-99.99,,2013-02-04 21:03:00,
2013-02-04 16:12:00,73.0,47.0,30.02,WSW,252,6.0,11.0,39,-99.99,,,-99.99,,2013-02-04 21:12:00,
2013-02-04 16:23:00,73.0,47.0,30.02,WSW,252,6.0,11.0,39,-99.99,,,-99.99,,2013-02-04 21:23:00,
2013-02-04 16:32:00,73.0,46.0,30.01,SW,217,5.0,11.0,38,-99.99,,,-99.99,,2013-02-04 21:32:00,
2013-02-04 16:43:00,73.0,46.0,30.01,SW,217,5.0,11.0,38,-99.99,,,-99.99,,2013-02-04 21:43:00,
2013-02-04 16:52:00,73.0,51.0,30.01,SSE,157,7.0,12.0,45,-99.99,,,-99.99,,2013-02-04 21:52:00,
2013-02-04 18:42:00,66.0,55.0,30.03,SE,146,5.0,7.0,66,-99.99,,,-99.99,,2013-02-04 23:42:00,
2013-02-04 18:53:00,66.0,55.0,30.03,SE,137,5.0,7.0,66,-99.99,,,-99.99,,2013-02-04 23:53:00,
2013-02-04 19:02:00,66.0,55.0,30.03,SE,137,5.0,7.0,66,-99.99,,,-99.99,,2013-02-05 00:02:00,
2013-02-04 19:11:00,66.0,55.0,30.03,SE,131,4.0,6.0,67,-99.99,,,-99.99,,2013-02-05 00:11:00,
2013-02-04 19:22:00,66.0,55.0,30.03,SE,131,4.0,6.0,67,-99.99,,,-99.99,,2013-02-05 00:22:00,
2013-02-04 19:32:00,65.0,55.0,30.03,SE,141,4.0,5.0,70,-99.99,,,-99.99,,2013-02-05 00:32:00,
2013-02-04 19:42:00,64.0,56.0,30.04,SE,143,3.0,9.0,74,-99.99,,,-99.99,,2013-02-05 00:42:00,
2013-02-04 19:52:00,63.0,56.0,30.04,SE,139,3.0,9.0,75,-99.99,,,-99.99,,2013-02-05 00:52:00,
2013-02-04 20:02:00,63.0,56.0,30.04,SE,139,3.0,9.0,75,-99.99,,,-99.99,,2013-02-05 01:02:00,
2013-02-04 20:12:00,64.0,55.0,30.04,ESE,109,3.0,16.0,73,-99.99,,,-99.99,,2013-02-05 01:12:00,
2013-02-04 20:22:00,64.0,55.0,30.04,ESE,109,3.0,16.0,73,-99.99,,,-99.99,,2013-02-05 01:22:00,
2013-02-04 20:32:00,63.0,56.0,30.04,SSW,197,6.0,9.0,76,-99.99,,,-99.99,,2013-02-05 01:32:00,
2013-02-04 20:42:00,63.0,56.0,30.04,SW,233,4.0,7.0,77,-99.99,,,-99.99,,2013-02-05 01:42:00,
2013-02-04 20:52:00,63.0,56.0,30.05,ESE,102,2.0,2.0,79,-99.99,,,-99.99,,2013-02-05 01:52:00,
2013-02-04 21:01:00,63.0,56.0,30.05,ESE,102,2.0,2.0,79,-99.99,,,-99.99,,2013-02-05 02:01:00,
2013-02-04 21:11:00,63.0,56.0,30.05,ESE,102,2.0,2.0,79,-99.99,,,-99.99,,2013-02-05 02:11:00,
2013-02-04 21:22:00,63.0,56.0,30.05,ESE,102,2.0,2.0,79,-99.99,,,-99.99,,2013-02-05 02:22:00,
2013-02-04 21:32:00,63.0,56.0,30.05,ESE,102,2.0,2.0,79,-99.99,,,-99.99,,2013-02-05 02:32:00,
2013-02-04 21:42:00,61.0,58.0,30.05,ESE,108,3.0,9.0,91,-99.99,,,-99.99,,2013-02-05 02:42:00,
2013-02-04 21:52:00,61.0,58.0,30.05,ESE,108,3.0,9.0,91,-99.99,,,-99.99,,2013-02-05 02:52:00,
2013-02-04 22:02:00,61.0,58.0,30.05,ESE,108,3.0,9.0,91,-99.99,,,-99.99,,2013-02-05 03:02:00,
2013-02-04 22:11:00,61.0,58.0,30.05,ESE,108,3.0,9.0,91,-99.99,,,-99.99,,2013-02-05 03:11:00,
2013-02-04 22:22:00,61.0,58.0,30.05,ESE,108,3.0,9.0,91,-99.99,,,-99.99,,2013-02-05 03:22:00,
2013-02-04 22:32:00,60.0,58.0,30.05,ESE,122,2.0,2.0,93,-99.99,,,-99.99,,2013-02-05 03:32:00,
2013-02-04 22:42:00,60.0,58.0,30.05,ESE,122,2.0,2.0,93,-99.99,,,-99.99,,2013-02-05 03:42:00,
2013-02-04 22:52:00,60.0,58.0,30.05,ESE,122,2.0,2.0,93,-99.99,,,-99.99,,2013-02-05 03:52:00,
2013-02-04 23:01:00,60.0,58.0,30.05,ESE,122,2.0,2.0,93,-99.99,,,-99.99,,2013-02-05 04:01:00,
2013-02-04 23:11:00,60.0,58.0,30.05,ESE,122,2.0,2.0,93,-99.99,,,-99.99,,2013-02-05 04:11:00,
2013-02-04 23:22:00,60.0,58.0,30.05,ESE,122,2.0,2.0,93,-99.99,,,-99.99,,2013-02-05 04:22:00,
2013-02-04 23:32:00,60.0,58.0,30.05,ESE,122,2.0,2.0,93,-99.99,,,-99.99,,2013-02-05 04:32:00,
2013-02-04 23:42:00,60.0,58.0,30.05,ESE,122,2.0,2.0,93,-99.99,,,-99.99,,2013-02-05 04:42:00,
2013-02-04 23:52:00,58.0,57.0,30.06,East,90,45.0,46.0,96,-99.99,,,-99.99,,2013-02-05 04:52:00,